Retour au catalogue

SL-23 DEB

LostHEO
NORAD 43385·DEBRIS·🇷🇺 Russia

Lancé Feb 26, 2009 depuis Baikonur Cosmodrome

Loading…

Prochains Passages (prochaines 24 heures)

TLE

PériméSource: Space-Track

Époque: Feb 18, 2025, 05:46 UTC

1 43385U 09009D   25049.24029079 -.00000114  00000-0  00000-0 0  9991
2 43385  34.7773 327.1904 6947111 106.0333   1.5684  2.21230851 93816

Suivez SL-23 DEB en temps réel avec AllMySat

Download on the App Store